TimeCDT,TemperatureF,Dew PointF,Humidity,Sea Level PressureIn,VisibilityMPH,Wind Direction,Wind SpeedMPH,Gust SpeedMPH,PrecipitationIn,Events,Conditions,WindDirDegrees,DateUTC
12:11 AM,28.4,21.2,74,30.19,10.0,NE,3.5,-,N/A,,Overcast,50,2012-11-03 05:11:00
12:32 AM,28.4,23.0,80,30.19,10.0,ENE,3.5,-,N/A,,Overcast,60,2012-11-03 05:32:00
12:51 AM,28.4,23.0,80,30.20,10.0,Calm,Calm,-,N/A,,Overcast,0,2012-11-03 05:51:00
1:11 AM,28.4,23.0,80,30.21,10.0,Calm,Calm,-,N/A,,Overcast,0,2012-11-03 06:11:00
1:32 AM,30.2,23.0,75,30.21,10.0,Calm,Calm,-,N/A,,Overcast,0,2012-11-03 06:32:00
1:51 AM,28.4,23.0,80,30.21,10.0,Calm,Calm,-,N/A,,Overcast,0,2012-11-03 06:51:00
2:11 AM,28.4,23.0,80,30.21,10.0,North,3.5,-,N/A,,Overcast,360,2012-11-03 07:11:00
2:31 AM,30.2,23.0,75,30.20,10.0,NNE,3.5,-,N/A,,Overcast,20,2012-11-03 07:31:00
2:51 AM,30.2,23.0,75,30.20,10.0,Calm,Calm,-,N/A,,Overcast,0,2012-11-03 07:51:00
3:11 AM,30.2,23.0,75,30.20,10.0,Calm,Calm,-,N/A,,Overcast,0,2012-11-03 08:11:00
3:31 AM,30.2,23.0,75,30.20,10.0,Calm,Calm,-,N/A,,Overcast,0,2012-11-03 08:31:00
3:51 AM,30.2,23.0,75,30.21,10.0,Calm,Calm,-,N/A,,Overcast,0,2012-11-03 08:51:00
4:12 AM,30.2,23.0,75,30.20,10.0,Calm,Calm,-,N/A,,Overcast,0,2012-11-03 09:12:00
4:51 AM,30.2,23.0,75,30.20,10.0,Calm,Calm,-,N/A,,Overcast,0,2012-11-03 09:51:00
5:12 AM,30.2,24.8,80,30.20,10.0,Calm,Calm,-,N/A,,Overcast,0,2012-11-03 10:12:00
5:31 AM,30.2,24.8,80,30.20,10.0,Calm,Calm,-,N/A,,Mostly Cloudy,0,2012-11-03 10:31:00
5:51 AM,28.4,23.0,80,30.21,10.0,Calm,Calm,-,N/A,,Mostly Cloudy,0,2012-11-03 10:51:00
6:12 AM,30.2,24.8,80,30.21,10.0,Calm,Calm,-,N/A,,Overcast,0,2012-11-03 11:12:00
6:31 AM,30.2,24.8,80,30.21,10.0,Calm,Calm,-,N/A,,Overcast,0,2012-11-03 11:31:00
6:51 AM,30.2,24.8,80,30.21,10.0,Calm,Calm,-,N/A,,Overcast,0,2012-11-03 11:51:00
7:12 AM,30.2,24.8,80,30.21,10.0,Calm,Calm,-,N/A,,Mostly Cloudy,0,2012-11-03 12:12:00
7:31 AM,30.2,24.8,80,30.21,10.0,Calm,Calm,-,N/A,,Overcast,0,2012-11-03 12:31:00
7:51 AM,28.4,24.8,86,30.22,10.0,Calm,Calm,-,N/A,,Overcast,0,2012-11-03 12:51:00
8:12 AM,30.2,24.8,80,30.22,10.0,Calm,Calm,-,N/A,,Overcast,0,2012-11-03 13:12:00
8:31 AM,30.2,24.8,80,30.23,10.0,Calm,Calm,-,N/A,,Overcast,0,2012-11-03 13:31:00
8:51 AM,30.2,24.8,80,30.23,10.0,South,4.6,-,N/A,,Overcast,170,2012-11-03 13:51:00
9:12 AM,30.2,24.8,80,30.24,10.0,SSE,5.8,-,N/A,,Overcast,160,2012-11-03 14:12:00
9:31 AM,30.2,23.0,75,30.23,10.0,SE,4.6,-,N/A,,Overcast,140,2012-11-03 14:31:00
9:51 AM,30.2,23.0,75,30.24,10.0,SE,4.6,-,N/A,,Overcast,130,2012-11-03 14:51:00
10:12 AM,32.0,24.8,75,30.24,10.0,SSE,4.6,-,N/A,,Overcast,150,2012-11-03 15:12:00
10:31 AM,32.0,24.8,75,30.24,10.0,SE,4.6,-,N/A,,Overcast,140,2012-11-03 15:31:00
10:51 AM,32.0,24.8,75,30.24,10.0,SSE,4.6,-,N/A,,Overcast,160,2012-11-03 15:51:00
11:12 AM,33.8,24.8,70,30.24,10.0,SSE,3.5,-,N/A,,Mostly Cloudy,150,2012-11-03 16:12:00
11:31 AM,33.8,24.8,70,30.24,10.0,South,3.5,-,N/A,,Overcast,170,2012-11-03 16:31:00
11:51 AM,33.8,24.8,70,30.24,10.0,Calm,Calm,-,N/A,,Mostly Cloudy,0,2012-11-03 16:51:00
12:12 PM,33.8,24.8,70,30.24,10.0,East,5.8,-,N/A,,Mostly Cloudy,100,2012-11-03 17:12:00
12:31 PM,35.6,24.8,65,30.24,10.0,East,5.8,-,N/A,,Mostly Cloudy,100,2012-11-03 17:31:00
12:51 PM,35.6,24.8,65,30.24,10.0,East,6.9,-,N/A,,Mostly Cloudy,90,2012-11-03 17:51:00
1:12 PM,35.6,24.8,65,30.23,10.0,ENE,10.4,-,N/A,,Mostly Cloudy,70,2012-11-03 18:12:00
1:31 PM,35.6,24.8,65,30.23,10.0,East,9.2,-,N/A,,Overcast,90,2012-11-03 18:31:00
1:51 PM,35.6,24.8,65,30.23,10.0,ESE,6.9,-,N/A,,Mostly Cloudy,120,2012-11-03 18:51:00
2:12 PM,35.6,24.8,65,30.23,10.0,ESE,5.8,-,N/A,,Mostly Cloudy,120,2012-11-03 19:12:00
2:31 PM,35.6,24.8,65,30.23,10.0,East,6.9,-,N/A,,Overcast,90,2012-11-03 19:31:00
2:51 PM,35.6,24.8,65,30.22,10.0,East,8.1,-,N/A,,Overcast,100,2012-11-03 19:51:00
3:11 PM,35.6,24.8,65,30.22,10.0,ESE,6.9,-,N/A,,Mostly Cloudy,120,2012-11-03 20:11:00
3:31 PM,37.4,24.8,60,30.22,10.0,East,5.8,-,N/A,,Overcast,100,2012-11-03 20:31:00
3:51 PM,35.6,24.8,65,30.22,10.0,East,8.1,-,N/A,,Overcast,80,2012-11-03 20:51:00
4:11 PM,35.6,24.8,65,30.22,10.0,East,6.9,-,N/A,,Overcast,90,2012-11-03 21:11:00
4:31 PM,35.6,24.8,65,30.22,10.0,East,6.9,-,N/A,,Overcast,80,2012-11-03 21:31:00
4:51 PM,33.8,24.8,70,30.22,10.0,East,6.9,-,N/A,,Overcast,90,2012-11-03 21:51:00
5:11 PM,33.8,24.8,70,30.22,10.0,East,5.8,-,N/A,,Overcast,80,2012-11-03 22:11:00
5:31 PM,33.8,26.6,75,30.22,10.0,East,6.9,-,N/A,,Overcast,80,2012-11-03 22:31:00
5:51 PM,32.0,26.6,80,30.22,10.0,ENE,5.8,-,N/A,,Mostly Cloudy,70,2012-11-03 22:51:00
6:11 PM,32.0,26.6,80,30.22,10.0,NE,4.6,-,N/A,,Mostly Cloudy,50,2012-11-03 23:11:00
6:31 PM,33.8,26.6,75,30.22,10.0,NE,6.9,-,N/A,,Overcast,50,2012-11-03 23:31:00
6:51 PM,32.0,26.6,80,30.22,5.0,NE,5.8,-,N/A,Snow,Light Snow,40,2012-11-03 23:51:00
7:11 PM,30.2,26.6,86,30.23,10.0,NNE,3.5,-,N/A,,Mostly Cloudy,30,2012-11-04 00:11:00
7:31 PM,30.2,26.6,86,30.24,10.0,NE,3.5,-,N/A,,Mostly Cloudy,40,2012-11-04 00:31:00
7:51 PM,30.2,26.6,86,30.24,10.0,Calm,Calm,-,N/A,,Overcast,0,2012-11-04 00:51:00
8:11 PM,30.2,26.6,86,30.24,10.0,Calm,Calm,-,N/A,,Overcast,0,2012-11-04 01:11:00
8:31 PM,30.2,26.6,86,30.24,10.0,Calm,Calm,-,N/A,,Overcast,0,2012-11-04 01:31:00
8:51 PM,30.2,26.6,86,30.24,10.0,Calm,Calm,-,N/A,,Overcast,0,2012-11-04 01:51:00
9:11 PM,30.2,26.6,86,30.24,10.0,Calm,Calm,-,N/A,,Overcast,0,2012-11-04 02:11:00
9:31 PM,30.2,26.6,86,30.24,10.0,Calm,Calm,-,N/A,,Overcast,0,2012-11-04 02:31:00
9:52 PM,30.2,24.8,80,30.24,10.0,NNE,3.5,-,N/A,,Overcast,20,2012-11-04 02:52:00
10:11 PM,30.2,24.8,80,30.25,10.0,Calm,Calm,-,N/A,,Scattered Clouds,0,2012-11-04 03:11:00
10:31 PM,28.4,24.8,86,30.24,10.0,North,3.5,-,N/A,,Scattered Clouds,10,2012-11-04 03:31:00
10:51 PM,28.4,24.8,86,30.24,10.0,North,3.5,-,N/A,,Overcast,10,2012-11-04 03:51:00
11:12 PM,28.4,24.8,86,30.24,10.0,North,3.5,-,N/A,,Mostly Cloudy,10,2012-11-04 04:12:00
11:31 PM,28.4,23.0,80,30.23,10.0,Calm,Calm,-,N/A,,Scattered Clouds,0,2012-11-04 04:31:00
11:51 PM,26.6,23.0,86,30.24,10.0,North,3.5,-,N/A,,Clear,350,2012-11-04 04:51:00